[[{"header":{"parameterUnit":"m.s-1","parameterCategory":1,"la1":30.2991,"la2":30.254,"lo1":-89.0895,"lo2":-89.0444,"dy":0.0017,"dx":0.0017,"nx":28,"ny":28,"refTime":"2026-02-08T09:00:00:Z","depth":0,"parameterNumber":2,"parameterNumberName":"U-component_of_WINDS"},"data":[0,0,0,0,0,0,0,0,0,0,0,0,0,0,0,0,0,0,0,0,0,0,0,0,0,0,0,0,0,0,0,0,0,0,0,0,0,0,0,0,0,0,0,0,0,0,0,0,0,0,0,0,0,0,0,0,0,0,0.1272,0.1273,0,0.1398,0.1399,0.1401,0.1447,0.1446,0.1446,0.1446,0.1579,0.1583,0.1586,0,0,0,0,0,0,0,0,0,0,0,0,0,0.1074,0.1078,0.1271,0.1273,0.1275,0.1397,0.1399,0.1401,0.1447,0.1446,0.1446,0.1445,0.1577,0.1582,0.1587,0,0,0,0,0,0,0,0,0,0,0,0,0,0.1176,0.1079,0.1271,0.1312,0.1317,0.1397,0.1399,0.1401,0.1447,0.1446,0.1446,0.1445,0.1576,0.1582,0.1587,0.1637,0,0,0.1606,0.1608,0,0,0,0,0,0,0,0,0.117,0.1183,0.1305,0.131,0.1315,0.1406,0.1379,0.1481,0.1447,0.1398,0.1446,0.1445,0.1522,0.1532,0.1558,0.1643,0.1649,0.1606,0.161,0.1612,0.1614,0,0,0,0,0,0,0,0.1163,0.1178,0.1322,0.1306,0.1313,0.1326,0.1339,0.1398,0.1462,0.1402,0.1406,0.142,0.1525,0.1552,0.1561,0.1651,0.1606,0.1611,0.1615,0.1617,0.1785,0.1786,0,0,0,0,0,0,0.1149,0.1172,0.1318,0.1325,0.124,0.133,0.1345,0.1377,0.1462,0.1474,0.142,0.1421,0.1542,0.1554,0.1566,0.1631,0.1612,0.1618,0.1621,0.1784,0.1786,0.1787,0,0,0,0,0,0,0.1144,0.1161,0.1312,0.125,0.127,0.1334,0.137,0.138,0.1407,0.1475,0.1487,0.1436,0.1542,0.1557,0.1619,0.1636,0.162,0.1626,0.1783,0.1785,0.1786,0.176,0,0,0,0,0,0,0.1139,0.1159,0.1178,0.125,0.1273,0.1362,0.1371,0.1383,0.1417,0.142,0.1493,0.1505,0.1543,0.161,0.1625,0.1644,0.163,0.1782,0.1784,0.1786,0.176,0.176,0.1761,0,0,0,0,0,0.1131,0.1166,0.1179,0.1196,0.1297,0.1363,0.1377,0.1418,0.1418,0.1438,0.1482,0.1502,0.1631,0.1616,0.1633,0.1654,0.1781,0.1784,0.1786,0.176,0.176,0.1761,0,0,0,0,0,0,0.1096,0.1176,0.1191,0.125,0.1299,0.1371,0.1397,0.1418,0.1469,0.147,0.1521,0.1537,0.1595,0.1631,0.1612,0.1707,0.1708,0.1713,0.1682,0.1683,0.1684,0.1675,0.1635,0,0,0,0,0,0.1095,0.114,0.1208,0.1254,0.1278,0.1333,0.1363,0.1391,0.1445,0.1466,0.1514,0.1567,0.162,0.1653,0.1705,0.1764,0.1782,0.1788,0.1788,0.1788,0.1793,0.1829,0.1833,0.1793,0.1793,0.1793,0,0,0.1094,0.1143,0.1169,0.1248,0.129,0.1337,0.135,0.14,0.1436,0.1474,0.1535,0.1572,0.1634,0.1695,0.1725,0.1727,0.1808,0.1791,0.179,0.1796,0.1832,0.1835,0.1839,0.1795,0.1794,0.1794,0,0,0.1116,0.1157,0.12,0.1241,0.1303,0.134,0.135,0.1418,0.1444,0.1506,0.1536,0.158,0.1669,0.1712,0.1746,0.1784,0.1806,0.1799,0.1804,0.1838,0.1841,0.1844,0.186,0.1864,0.1804,0.1804,0.1804,0,0.1107,0.1178,0.122,0.1268,0.1303,0.1337,0.1383,0.1421,0.1497,0.1521,0.1522,0.1634,0.1678,0.1751,0.176,0.1785,0.18,0.1792,0.1837,0.184,0.1844,0.1859,0.1865,0.1803,0.1803,0.1803,0.1803,0,0.1165,0.1214,0.1242,0.1313,0.1351,0.1397,0.1447,0.148,0.1504,0.1541,0.1605,0.1658,0.1722,0.1741,0.1766,0.1818,0.1817,0.1826,0.1829,0.1846,0.1862,0.1868,0.1801,0.1802,0.1802,0.1802,0,0,0.117,0.1264,0.1273,0.1307,0.1378,0.1417,0.1465,0.1527,0.1555,0.1606,0.1649,0.1723,0.1733,0.1771,0.1801,0.183,0.1859,0.1837,0.1839,0.1841,0.1922,0.1916,0.1922,0.1873,0.1874,0.1875,0.1918,0,0.1203,0.129,0.1329,0.1398,0.1445,0.1479,0.1521,0.157,0.1605,0.1651,0.1691,0.1744,0.1751,0.1774,0.1805,0.1849,0.1877,0.1846,0.1916,0.1918,0.1901,0.193,0.1924,0.1961,0.1924,0.1925,0.1925,0,0.1254,0.1304,0.1378,0.1444,0.1465,0.1502,0.1562,0.1605,0.1662,0.1685,0.1728,0.1756,0.181,0.1806,0.1882,0.186,0.1891,0.1916,0.1919,0.1929,0.1924,0.1943,0.1974,0.198,0.1935,0.1934,0.1934,0,0.1253,0.1339,0.1395,0.1422,0.15,0.1525,0.1559,0.1615,0.1649,0.1702,0.1725,0.1784,0.1816,0.1861,0.1905,0.1898,0.1978,0.1977,0.2001,0.2,0.2018,0.2017,0.2057,0.2034,0.2034,0.2033,0.2033,0,0.1287,0.1332,0.1395,0.143,0.1481,0.1526,0.1576,0.1612,0.1661,0.1705,0.1737,0.1778,0.1832,0.188,0.1914,0.1973,0.1987,0.2009,0.2018,0.2008,0.2005,0.203,0.203,0.2035,0.2035,0.2034,0.2034,0,0.1295,0.1339,0.1403,0.1471,0.1489,0.1524,0.1583,0.1619,0.1655,0.171,0.1725,0.1783,0.1841,0.1889,0.1965,0.1988,0.205,0.2059,0.2031,0.2036,0.2058,0.2056,0.2117,0.2128,0.2095,0.2095,0.2096,0,0.1315,0.135,0.1422,0.1452,0.1485,0.1535,0.157,0.1615,0.1651,0.1717,0.1746,0.1805,0.1856,0.1947,0.1997,0.2056,0.2068,0.2086,0.2078,0.2066,0.2072,0.207,0.2075,0.2087,0.2087,0.2087,0.2087,0,0.1347,0.1367,0.1416,0.1473,0.1513,0.1561,0.1609,0.1633,0.1687,0.1725,0.1784,0.1823,0.19,0.196,0.2024,0.2061,0.2084,0.2089,0.2098,0.2089,0.2072,0.2084,0.2035,0.2088,0.2088,0.2088,0.2088,0.2088,0.1364,0.1397,0.1452,0.1506,0.1546,0.1591,0.1628,0.1668,0.1718,0.1783,0.1807,0.1868,0.1925,0.2013,0.2049,0.2099,0.2102,0.2114,0.2118,0.2121,0.2121,0.2061,0.2111,0.2111,0.2111,0.2111,0.2111,0,0.1399,0.1436,0.1484,0.155,0.1593,0.1608,0.1663,0.1698,0.1751,0.1801,0.1849,0.1918,0.1976,0.203,0.2091,0.2121,0.2133,0.2135,0.2135,0.2144,0.2114,0.2101,0.2124,0.2124,0.2124,0.2124,0.2124,0.2124,0.1422,0.1479,0.1506,0.1584,0.1622,0.1681,0.171,0.1752,0.1792,0.1867,0.1915,0.1949,0.2001,0.2067,0.2121,0.2136,0.2158,0.2158,0.2176,0.2147,0.2145,0.2144,0.2132,0.2162,0.2162,0.2202,0.2203,0.2203]},{"header":{"parameterUnit":"m.s-1","parameterCategory":1,"la1":30.2991,"la2":30.254,"lo1":-89.0895,"lo2":-89.0444,"dy":0.0017,"dx":0.0017,"nx":28,"ny":28,"refTime":"2026-02-08T09:00:00:Z","depth":0,"parameterNumber":3,"parameterNumberName":"V-component_of_WINDS"},"data":[0,0,0,0,0,0,0,0,0,0,0,0,0,0,0,0,0,0,0,0,0,0,0,0,0,0,0,0,0,0,0,0,0,0,0,0,0,0,0,0,0,0,0,0,0,0,0,0,0,0,0,0,0,0,0,0,0,0,1.8023,1.8023,0,1.8002,1.8002,1.8002,1.7962,1.7961,1.796,1.796,1.7938,1.7938,1.7938,0,0,0,0,0,0,0,0,0,0,0,0,0,1.8029,1.8029,1.8023,1.8023,1.8022,1.8002,1.8002,1.8002,1.7962,1.7961,1.796,1.7959,1.7938,1.7938,1.7938,0,0,0,0,0,0,0,0,0,0,0,0,0,1.8019,1.8029,1.8023,1.8,1.7998,1.8002,1.8002,1.8001,1.7962,1.7961,1.796,1.7959,1.7938,1.7938,1.7938,1.7963,0,0,1.7939,1.7939,0,0,0,0,0,0,0,0,1.802,1.8019,1.8004,1.8002,1.7999,1.7983,1.7996,1.7988,1.7962,1.7976,1.796,1.7958,1.7954,1.7953,1.7951,1.7962,1.7961,1.7939,1.7939,1.7939,1.7939,0,0,0,0,0,0,0,1.802,1.802,1.8015,1.8004,1.8001,1.7991,1.7989,1.7994,1.7972,1.7975,1.7972,1.797,1.7952,1.7951,1.7951,1.796,1.7939,1.7939,1.7939,1.7939,1.7991,1.7992,0,0,0,0,0,0,1.8024,1.802,1.8015,1.8014,1.8007,1.7992,1.7989,1.799,1.7971,1.7968,1.7971,1.7968,1.7951,1.795,1.795,1.7978,1.7939,1.7939,1.7939,1.799,1.7991,1.7993,0,0,0,0,0,0,1.8025,1.8024,1.8016,1.8016,1.8015,1.7993,1.7994,1.799,1.7989,1.7969,1.7964,1.7974,1.7951,1.7949,1.796,1.7977,1.7939,1.794,1.7988,1.799,1.7992,1.8034,0,0,0,0,0,0,1.8025,1.8025,1.8034,1.8017,1.8015,1.8027,1.7995,1.799,1.7989,1.7985,1.797,1.7967,1.795,1.796,1.796,1.7976,1.794,1.7987,1.7989,1.7991,1.8031,1.8037,1.8043,0,0,0,0,0,1.8025,1.8046,1.8034,1.8034,1.8026,1.8028,1.8027,1.8007,1.7991,1.8,1.7987,1.7967,1.7975,1.7961,1.7961,1.7978,1.7985,1.7988,1.7991,1.8029,1.8036,1.8042,0,0,0,0,0,0,1.8065,1.8044,1.803,1.8046,1.8039,1.8021,1.8032,1.8015,1.8013,1.8009,1.7984,1.7981,1.7995,1.7987,1.7973,1.8001,1.7977,1.798,1.8006,1.8013,1.8018,1.802,1.794,0,0,0,0,0,1.8076,1.8079,1.806,1.8076,1.8074,1.8054,1.8054,1.8039,1.8031,1.8028,1.8016,1.8009,1.8009,1.801,1.801,1.803,1.8026,1.8041,1.8047,1.8052,1.8054,1.8065,1.8072,1.8002,1.8002,1.8002,0,0,1.8098,1.8086,1.809,1.8084,1.8077,1.8082,1.8051,1.8057,1.8061,1.8029,1.8038,1.8029,1.802,1.8035,1.8042,1.8029,1.8073,1.8055,1.8059,1.8059,1.8069,1.8076,1.8082,1.8004,1.8003,1.8003,0,0,1.814,1.8132,1.8145,1.8138,1.8128,1.8115,1.8118,1.8103,1.8096,1.8105,1.8081,1.8085,1.8087,1.8081,1.8079,1.812,1.8102,1.8121,1.815,1.8161,1.8167,1.8171,1.8187,1.8193,1.8124,1.8124,1.8124,0,1.8169,1.8175,1.8153,1.8161,1.8159,1.8131,1.8144,1.8139,1.8129,1.8129,1.8115,1.8117,1.8109,1.8123,1.8134,1.8132,1.8135,1.8122,1.8168,1.8172,1.8176,1.8191,1.8197,1.8126,1.8126,1.8126,1.8125,0,1.8211,1.8216,1.8227,1.8219,1.8218,1.8229,1.8209,1.8211,1.8197,1.8185,1.8196,1.8184,1.8182,1.8184,1.817,1.8197,1.819,1.8172,1.8148,1.8186,1.8199,1.8205,1.8129,1.8129,1.8128,1.8127,0,0,1.8278,1.8258,1.8263,1.8259,1.8246,1.8249,1.8259,1.8256,1.8259,1.8253,1.8261,1.8264,1.8248,1.8245,1.823,1.8239,1.8274,1.8221,1.822,1.8232,1.8304,1.8318,1.8325,1.8262,1.8263,1.8264,1.8306,0,1.8318,1.8333,1.8314,1.8333,1.8338,1.8311,1.832,1.8313,1.8302,1.8305,1.8293,1.8295,1.8274,1.8272,1.828,1.8268,1.8289,1.8265,1.8269,1.827,1.8273,1.8332,1.8346,1.8386,1.8311,1.8311,1.8312,0,1.8367,1.8364,1.8384,1.8371,1.8372,1.838,1.8376,1.8379,1.8371,1.8363,1.836,1.8342,1.8351,1.8327,1.8339,1.8323,1.8324,1.8319,1.832,1.832,1.8294,1.8334,1.8398,1.8405,1.832,1.8319,1.8319,0,1.8414,1.8416,1.8428,1.8425,1.841,1.8416,1.841,1.8401,1.8401,1.8398,1.8398,1.8397,1.8396,1.8395,1.8377,1.8362,1.8392,1.8366,1.8386,1.8387,1.8394,1.8394,1.846,1.8393,1.8393,1.8393,1.8393,0,1.8462,1.8475,1.8449,1.8457,1.8471,1.845,1.8465,1.8456,1.8448,1.8454,1.8431,1.8437,1.8413,1.8416,1.8402,1.8415,1.8415,1.8408,1.8405,1.8411,1.8412,1.8411,1.8408,1.8395,1.8394,1.8394,1.8394,0,1.8517,1.8501,1.8512,1.8497,1.8494,1.8505,1.8492,1.8499,1.8487,1.8495,1.8495,1.8477,1.848,1.8462,1.8461,1.8452,1.8472,1.8463,1.8475,1.8472,1.8493,1.8492,1.8562,1.857,1.8498,1.8499,1.8499,0,1.8549,1.8559,1.8545,1.8547,1.8542,1.8546,1.8546,1.8526,1.8527,1.8519,1.8527,1.8528,1.8528,1.8534,1.8521,1.852,1.8512,1.8536,1.8512,1.8518,1.8513,1.8513,1.8514,1.8542,1.8543,1.8543,1.8544,0,1.8607,1.8598,1.8599,1.8598,1.8599,1.8597,1.8593,1.8597,1.8574,1.8577,1.858,1.858,1.858,1.8582,1.8579,1.8573,1.8555,1.8552,1.8556,1.8563,1.857,1.8567,1.849,1.855,1.855,1.8549,1.8549,1.8549,1.8652,1.866,1.8651,1.8654,1.8649,1.8646,1.8652,1.8641,1.8643,1.8642,1.863,1.8635,1.8628,1.8622,1.8618,1.8622,1.8611,1.8617,1.8619,1.8621,1.8625,1.8569,1.8622,1.8621,1.8621,1.8621,1.8621,0,1.8709,1.8703,1.8705,1.8701,1.8703,1.8686,1.8682,1.8685,1.869,1.8684,1.8685,1.8689,1.8691,1.8678,1.8678,1.8684,1.8676,1.8685,1.8684,1.8684,1.8635,1.8632,1.8691,1.8691,1.8691,1.8691,1.8691,1.8691,1.874,1.8752,1.8743,1.8753,1.8746,1.8752,1.8751,1.8749,1.8744,1.875,1.8751,1.8743,1.8735,1.8734,1.8735,1.8731,1.8733,1.8745,1.8739,1.8694,1.8687,1.868,1.8677,1.8745,1.8745,1.8787,1.8787,1.8787]}]]